Time,TemperatureF,DewpointF,PressureIn,WindDirection,WindDirectionDegrees,WindSpeedMPH,WindSpeedGustMPH,Humidity,HourlyPrecipIn,Conditions,Clouds,dailyrainin,SoftwareType,DateUTC
2013-06-10 00:12:00,65.0,61.0,-100.00,SSE,160,0.0,1.0,86,0.00,,,-99.99,,2013-06-10 05:12:00,
2013-06-10 00:22:00,65.0,61.0,-100.00,SSE,160,0.0,1.0,86,0.00,,,-99.99,,2013-06-10 05:22:00,
2013-06-10 00:32:00,65.0,61.0,-100.00,SSE,160,0.0,1.0,86,0.00,,,-99.99,,2013-06-10 05:32:00,
2013-06-10 00:42:00,65.0,61.0,-100.00,SSE,160,0.0,1.0,86,0.00,,,-99.99,,2013-06-10 05:42:00,
2013-06-10 01:12:00,63.0,60.0,-100.00,NNE,30,1.0,2.0,89,0.00,,,-99.99,,2013-06-10 06:12:00,
2013-06-10 01:22:00,63.0,60.0,-100.00,NNE,30,1.0,2.0,89,0.00,,,-99.99,,2013-06-10 06:22:00,
2013-06-10 01:32:00,63.0,60.0,-100.00,NNE,30,1.0,2.0,89,0.00,,,-99.99,,2013-06-10 06:32:00,
2013-06-10 01:42:00,63.0,60.0,-100.00,NNE,30,1.0,2.0,89,0.00,,,-99.99,,2013-06-10 06:42:00,
2013-06-10 02:12:00,62.0,59.0,-100.00,ENE,60,3.0,3.0,90,0.00,,,-99.99,,2013-06-10 07:12:00,
2013-06-10 02:22:00,62.0,59.0,-100.00,ENE,60,3.0,3.0,90,0.00,,,-99.99,,2013-06-10 07:22:00,
2013-06-10 02:32:00,62.0,59.0,-100.00,ENE,60,3.0,3.0,90,0.00,,,-99.99,,2013-06-10 07:32:00,
2013-06-10 02:42:00,62.0,59.0,-100.00,ENE,60,3.0,3.0,90,0.00,,,-99.99,,2013-06-10 07:42:00,
2013-06-10 03:12:00,62.0,59.0,-100.00,NE,45,4.0,6.0,90,0.00,,,-99.99,,2013-06-10 08:12:00,
2013-06-10 03:22:00,62.0,59.0,-100.00,NE,45,4.0,6.0,90,0.00,,,-99.99,,2013-06-10 08:22:00,
2013-06-10 03:32:00,62.0,59.0,-100.00,NE,45,4.0,6.0,90,0.00,,,-99.99,,2013-06-10 08:32:00,
2013-06-10 03:42:00,62.0,59.0,-100.00,NE,45,4.0,6.0,90,0.00,,,-99.99,,2013-06-10 08:42:00,
2013-06-10 04:12:00,61.0,58.0,-100.00,NE,40,3.0,4.0,89,0.00,,,-99.99,,2013-06-10 09:12:00,
2013-06-10 04:22:00,61.0,58.0,-100.00,NE,40,3.0,4.0,89,0.00,,,-99.99,,2013-06-10 09:22:00,
2013-06-10 04:32:00,61.0,58.0,-100.00,NE,40,3.0,4.0,89,0.00,,,-99.99,,2013-06-10 09:32:00,
2013-06-10 04:42:00,61.0,58.0,-100.00,NE,40,3.0,4.0,89,0.00,,,-99.99,,2013-06-10 09:42:00,
2013-06-10 05:12:00,59.0,56.0,-100.00,North,10,4.0,6.0,90,0.00,,,-99.99,,2013-06-10 10:12:00,
2013-06-10 05:22:00,59.0,56.0,-100.00,North,10,4.0,6.0,90,0.00,,,-99.99,,2013-06-10 10:22:00,
2013-06-10 05:33:00,59.0,56.0,-100.00,North,10,4.0,6.0,90,0.00,,,-99.99,,2013-06-10 10:33:00,
2013-06-10 05:42:00,59.0,56.0,-100.00,North,10,4.0,6.0,90,0.00,,,-99.99,,2013-06-10 10:42:00,
2013-06-10 06:12:00,59.0,57.0,-100.00,NNE,25,2.0,6.0,91,0.00,,,-99.99,,2013-06-10 11:12:00,
2013-06-10 06:22:00,59.0,57.0,-100.00,NNE,25,2.0,6.0,91,0.00,,,-99.99,,2013-06-10 11:22:00,
2013-06-10 06:32:00,59.0,57.0,-100.00,NNE,25,2.0,6.0,91,0.00,,,-99.99,,2013-06-10 11:32:00,
2013-06-10 06:42:00,59.0,57.0,-100.00,NNE,25,2.0,6.0,91,0.00,,,-99.99,,2013-06-10 11:42:00,
2013-06-10 07:12:00,61.0,58.0,-100.00,NE,35,1.0,4.0,91,0.00,,,-99.99,,2013-06-10 12:12:00,
2013-06-10 07:22:00,61.0,58.0,-100.00,NE,35,1.0,4.0,91,0.00,,,-99.99,,2013-06-10 12:22:00,
2013-06-10 07:32:00,61.0,58.0,-100.00,NE,35,1.0,4.0,91,0.00,,,-99.99,,2013-06-10 12:32:00,
2013-06-10 07:42:00,61.0,58.0,-100.00,NE,35,1.0,4.0,91,0.00,,,-99.99,,2013-06-10 12:42:00,
2013-06-10 08:12:00,63.0,60.0,-100.00,NNE,15,6.0,7.0,89,0.00,,,-99.99,,2013-06-10 13:12:00,
2013-06-10 08:22:00,63.0,60.0,-100.00,NNE,15,6.0,7.0,89,0.00,,,-99.99,,2013-06-10 13:22:00,
2013-06-10 08:32:00,63.0,60.0,-100.00,NNE,15,6.0,7.0,89,0.00,,,-99.99,,2013-06-10 13:32:00,
2013-06-10 08:42:00,63.0,60.0,-100.00,NNE,15,6.0,7.0,89,0.00,,,-99.99,,2013-06-10 13:42:00,
2013-06-10 09:02:00,69.0,60.0,-100.00,ENE,65,4.0,6.0,74,0.00,,,-99.99,,2013-06-10 14:02:00,
2013-06-10 09:12:00,69.0,60.0,-100.00,ENE,65,4.0,6.0,74,0.00,,,-99.99,,2013-06-10 14:12:00,
2013-06-10 09:22:00,69.0,60.0,-100.00,ENE,65,4.0,6.0,74,0.00,,,-99.99,,2013-06-10 14:22:00,
2013-06-10 09:32:00,69.0,60.0,-100.00,ENE,65,4.0,6.0,74,0.00,,,-99.99,,2013-06-10 14:32:00,
2013-06-10 09:40:00,72.0,60.0,-100.00,NNW,340,2.0,5.0,66,0.00,,,-99.99,,2013-06-10 14:40:00,
2013-06-10 09:42:00,69.0,60.0,-100.00,ENE,65,4.0,6.0,74,0.00,,,-99.99,,2013-06-10 14:42:00,
2013-06-10 10:02:00,72.0,60.0,-100.00,NNW,340,2.0,5.0,66,0.00,,,-99.99,,2013-06-10 15:02:00,
2013-06-10 10:12:00,72.0,60.0,-100.00,NNW,340,2.0,5.0,66,0.00,,,-99.99,,2013-06-10 15:12:00,
2013-06-10 10:22:00,72.0,60.0,-100.00,NNW,340,2.0,5.0,66,0.00,,,-99.99,,2013-06-10 15:22:00,
2013-06-10 10:33:00,72.0,60.0,-100.00,NNW,340,2.0,5.0,66,0.00,,,-99.99,,2013-06-10 15:33:00,